Satellite-Ground Cal/Val Site Overpasses Predictions

Prediction of Satellite NPP Overpassing Cal/Val Site: Antarctic Dome C

Ground Cal/Val Site Location: Latitude: -75.10, Longitude: 123.35; Satellite-Ground Site NADIR distance within 100 km.

Table of predicted overpasses for the next 14.0 days since TLE Epoch: 6/22/2016
Interval Starting Time Ending Time Minimum Distance Time Minimum Distance (km)
1 06/22/2016 07:19:56 06/22/2016 07:20:16 06/22/2016 07:20:06 73.21
2 06/24/2016 15:02:10 06/24/2016 15:02:34 06/24/2016 15:02:22 57.71
3 06/25/2016 14:43:19 06/25/2016 14:43:44 06/25/2016 14:43:32 51.43
4 06/26/2016 07:45:01 06/26/2016 07:45:21 06/26/2016 07:45:11 72.01
5 06/27/2016 07:26:07 06/27/2016 07:26:34 06/27/2016 07:26:21 35.88
6 06/29/2016 15:08:33 06/29/2016 15:08:41 06/29/2016 15:08:37 95.45
7 06/30/2016 14:49:33 06/30/2016 14:50:02 06/30/2016 14:49:47 15.96
8 07/02/2016 07:32:22 07/02/2016 07:32:51 07/02/2016 07:32:36 3.10


NCC Satellite Cal/Val Overpasses Prediction Service
